Location: The Saddle
(36.8333°N, 80.3417°W)
Time: 09:33:43
(UTC-04:00)

A-11 Canister half - Pass Details

Date: 01 June 2024
Orbit: 1515 x 1685 km, 47.2° (Epoch: 17 June)

Event Time Altitude Azimuth Distance (km) Brightness Sun altitude
Rises 03:18:12 0° 278° (W) 4,801 11.4 -24.7°
Reaches altitude 10° 03:21:34 10° 285° (WNW) 3,791 10.9 -24.4°
Maximum altitude 03:30:39 45° 356° (N) 2,017 9.9 -23.4°
Drops below altitude 10° 03:39:28 10° 67° (ENE) 3,689 11.8 -22.4°
Sets 03:42:42 0° 74° (ENE) 4,662 12.3 -22.0°
